カタログに戻る

LONGJIANG 1

運用中科学HEO
NORAD 43471·PAYLOAD·🇨🇳 China

打ち上げ May 20, 2018 から Xichang Satellite Launch Center

Loading…

次のパス (今後24時間)

TLE

古いSource: Space-Track

元期: May 20, 2018, 23:16 UTC

1 43471U 18045B   18140.97000001 -.00010094 +00000-0 +00000-0 0  9993
2 43471 027.5020 209.5210 9658153 171.2240 002.0960 00.09844104000018

AllMySatでLONGJIANG 1をリアルタイム追跡

Download on the App Store